Regional Weather Roundup
Issued by NWS

Home | Current Version | Previous Version | Text Only | Print | Product List | Glossary On
Versions: 1 2 3 4 5 6 7 8 9 10 11 12 13 14 15 16 17 18 19 20 21 22 23 24 25 26 27
000
ASUS45 KBOU 191507
RWRCO

WEATHER ROUNDUP FOR COLORADO
NATIONAL WEATHER SERVICE DENVER/BOULDER CO
900 AM MDT TUE SEP 19 2017

NOTE: "FAIR" INDICATES FEW OR NO CLOUDS BELOW 12000 FEET WITH NO
SIGNIFICANT WEATHER AND/OR OBSTRUCTIONS TO VISIBILITY.

COZ001>005-013-030-031-191600-
...NORTHWEST COLORADO...

CITY           SKY/WX    TMP DP  RH WIND       PRES   REMARKS
CRAIG          FAIR      65  18  16 SW28G41   29.81F
HAYDEN         FAIR      64  21  19 SW18G26   29.85F
MEEKER         FAIR      63  21  20 S17G29    29.86F
RABBIT EARS PA FAIR      45  19  36 SW9G20    30.05S
STEAMBOAT SPGS FAIR      54  33  45 CALM      29.86S
WALDEN         FAIR      57  18  21 SW23G30   29.88F
$$

COZ006>008-011-191600-
...WEST CENTRAL VALLEYS...

CITY           SKY/WX    TMP DP  RH WIND       PRES   REMARKS
GRAND JUNCTION FAIR      68  25  19 S14       29.85S
MONTROSE       FAIR      64  22  20 VRB3      29.98R
EAGLE          FAIR      65  17  15 SW10      29.92S
RIFLE          FAIR      67  26  21 NW6       29.87F
DELTA          FAIR      62  31  31 MISG      29.94R
NUCLA          FAIR      64  19  17 SW18G25   30.03R
$$

COZ017>023-064>068-191600-
...SOUTHWEST COLORADO...

CITY           SKY/WX    TMP DP  RH WIND       PRES   REMARKS
DURANGO        FAIR      47  32  56 E5        30.11S
CORTEZ         FAIR      55  33  43 CALM      30.05R
PAGOSA SPRINGS FAIR      51  19  28 E5        30.17S
TELLURIDE      FAIR      56   8  14 SE17G26   30.13S
WOLF CREEK PAS FAIR      32  12  43 S26G37    30.30F WCI  18
$$

COZ009-010-012-014-032>034-037-058>063-191600-
...CENTRAL COLORADO...

CITY           SKY/WX    TMP DP  RH WIND       PRES   REMARKS
ASPEN          FAIR      60  20  21 VRB5      29.96F
BUENA VISTA    FAIR      50  24  36 CALM      29.97F
COPPER MTN     FAIR      46 -11   8 SW22G38   30.16S
BERTHOUD PASS  FAIR      37  30  75 NW26G44   30.15R
COTTONWOOD PAS FAIR      52  12  20 W5        30.06F
GUNNISON       FAIR      39  28  64 CALM      30.08F
KREMMLING      FAIR      66   7   9 SW15G31   29.91S
LEADVILLE      FAIR      51  -4  10 VRB5      30.05F
MONARCH PASS   FAIR      37  14  38 SW35G41   30.29F
SALIDA         FAIR      63  16  16 SW13G21   30.03F
SUNLIGHT       FAIR      41  16  36 SW16G32   30.14S
WILKERSON PASS FAIR      41  12  30 SW22G29   30.12S
$$

COZ069>075-191600-
...SAN LUIS VALLEY/SANGRE DE CRISTO MOUNTAINS...

CITY           SKY/WX    TMP DP  RH WIND       PRES   REMARKS
ALAMOSA        FAIR      58  22  24 S12G22    30.06F
DEL NORTE      FAIR      52  18  25 W20G26    30.07S
LA VETA PASS   FAIR      43  12  28 S26G48    30.23S
SAGUACHE       FAIR      46  30  53 CALM      30.07F
$$

COZ035-036-038>040-191600-
...NORTHERN COLORADO FRONT RANGE...

CITY           SKY/WX    TMP DP  RH WIND       PRES   REMARKS
DENVER INTL AP PTSUNNY   69  21  16 S17       29.72F
DMNS CITY PARK   N/A     66  26  22 S5G14     29.72F
AURORA         PTSUNNY   68  23  18 S15       29.75F
FRONT RANGE AP PTSUNNY   72  19  14 S16       29.74F
ERIE MUNI ARPT FAIR      62  26  25 SW5       29.76F
BOULDER MUN AP FAIR      55  36  47 CALM      29.71F
CENTENNIAL     PTSUNNY   67  22  18 S21G26    29.76F
BROOMFIELD     PTSUNNY   59  28  31 SW5       29.74F
FORT COLLINS   FAIR      54  43  66 CALM      29.72S
LONGMONT       NOT AVBL
$$

COZ041-046-047-076>085-087-088-191600-
...PIKES PEAK/PALMER DIVIDE AND SOUTHERN FOOTHILLS...

CITY           SKY/WX    TMP DP  RH WIND       PRES   REMARKS
COLO. SPRINGS  PTSUNNY   69  23  17 S14G24    29.84S
A. F. ACADEMY  FAIR      60  27  28 CALM      29.84F
SCHRIEVER AFB  FAIR      67  19  16 S20G28    29.84F
CHEYENNE MTN   NOT AVBL
ELLICOTT       NOT AVBL
FALCON         FAIR      64  23  21 CALM      29.89R
FORT CARSON    FAIR      69  23  17 SW12      29.81F
LIMON            N/A    N/A N/A N/A MISG      29.77F
MONUMENT HILL  FAIR      63  19  19 W13G23    29.89S
CANON CITY     SUNNY     72  28  20 NW3       29.81F
WALSENBURG     FAIR      68  16  13 SW28G39   29.90R
TRINIDAD       FAIR      73  22  14 W18G24    29.88S
$$

COZ042>045-048>051-090-091-191600-
...NORTHEAST COLORADO...

CITY           SKY/WX    TMP DP  RH WIND       PRES   REMARKS
GREELEY ARPT   FAIR      49  43  80 NW5       29.71F
AKRON          FAIR      72  26  18 SW13      29.69F
BURLINGTON     FAIR      70  41  34 SW13      29.73S
WRAY           FAIR      68  43  40 S10       29.67S
YUMA           FAIR      68  25  19 S5        29.67S
STERLING       FAIR      55  48  76 S3        29.66S
HOLYOKE        FAIR      64  50  59 S7        29.67S
FORT MORGAN    FAIR      65  30  27 W7        29.69F
$$

COZ086-089-092>099-191600-
...SOUTHEAST COLORADO...

CITY           SKY/WX    TMP DP  RH WIND       PRES   REMARKS
PUEBLO         FAIR      63  35  35 CALM      29.77F
LA JUNTA       FAIR      75  29  18 SW21G26   29.76S
LAMAR          FAIR      67  44  43 W7        29.73S
SPRINGFIELD      N/A     75  38  26 SW16G24   29.79
$$




USA.gov is the U.S. government's official web portal to all federal, state and local government web resources and services.